GFSMA_700_rhum_000.txt.gz
RH
38 37 40 45 49 44 95 94 75 99 98 100 99 96 97 90 86 84 94 98 100 95 57 37 59 37 12 14 11 17 24 23 7 10 12 13 14 14 18 18 18 18 17
28 34 38 42 43 42 50 59 66 61 56 87 86 68 69 74 71 62 64 82 99 100 71 49 58 60 27 18 14 18 25 24 8 13 13 14 15 17 19 19 20 20 19
25 24 23 21 22 24 20 28 33 52 50 41 34 45 35 39 49 49 46 55 84 99 89 61 42 65 52 25 16 19 25 22 10 14 14 15 17 19 20 21 22 21 20
28 28 28 27 25 24 22 20 16 16 33 88 42 37 38 35 36 44 40 68 74 80 100 71 59 59 58 65 22 20 26 18 12 15 15 16 18 20 21 23 23 22 22
28 33 33 29 25 23 20 18 18 15 15 22 30 31 32 38 42 45 43 59 80 94 87 100 71 56 59 58 63 22 28 14 13 15 15 17 19 21 22 24 25 23 23
37 40 34 30 29 27 23 21 20 19 18 17 16 17 23 40 54 61 44 53 63 82 99 100 85 70 48 50 56 40 29 10 15 15 16 18 20 21 23 25 27 26 24
47 44 42 37 32 30 28 26 25 23 21 17 15 14 14 17 26 40 34 69 65 74 100 100 99 87 70 52 61 62 29 9 16 16 16 18 20 21 23 26 28 28 27
53 53 49 41 36 32 29 27 26 24 24 23 21 19 17 17 18 26 29 58 60 83 79 85 99 100 91 64 63 66 33 8 17 17 16 18 20 21 23 26 28 29 29
60 57 51 44 38 34 31 30 29 27 25 25 23 22 20 18 17 18 25 66 66 64 80 69 92 99 88 78 65 69 44 7 16 16 17 18 20 21 23 26 28 30 30
58 53 47 42 38 35 32 29 29 30 30 29 27 25 22 20 17 17 28 30 38 66 80 80 76 91 98 88 81 65 60 9 15 16 18 19 20 21 23 25 26 29 31
52 50 49 50 46 40 35 34 32 30 30 32 32 29 26 22 21 17 16 30 53 86 94 99 74 97 99 94 86 74 52 21 18 20 21 21 21 21 22 24 26 28 31
60 58 56 55 52 53 54 48 40 36 31 28 29 33 34 29 24 23 20 15 16 73 94 98 99 81 83 99 95 79 62 26 30 26 24 28 26 24 22 22 24 27 29
63 70 67 60 57 57 52 47 43 38 33 28 26 26 29 29 28 25 22 21 18 16 72 99 99 99 99 99 98 93 72 55 28 29 27 28 44 44 29 23 23 25 26
67 75 61 52 46 42 38 34 29 26 23 23 24 25 38 48 22 21 22 22 20 18 13 47 98 96 84 99 98 99 95 78 53 36 34 26 27 54 87 58 36 25 24
78 63 55 45 41 35 29 28 25 23 18 16 18 34 42 74 93 13 12 13 17 18 19 13 31 90 99 99 99 98 97 99 82 68 48 38 33 29 39 70 75 38 26
67 56 47 38 26 20 16 14 14 14 18 21 27 25 30 63 100 57 8 7 9 17 18 18 14 19 88 99 99 99 99 99 100 98 82 52 45 41 32 30 35 42 48
52 38 26 18 14 16 20 23 23 23 24 24 26 29 31 31 63 88 30 38 36 22 22 16 17 13 13 55 95 98 98 98 98 99 99 76 53 51 44 38 71 58 51
38 28 20 18 24 23 23 25 24 23 24 25 25 28 29 28 46 50 42 24 39 25 14 10 20 18 13 10 16 93 98 95 98 97 98 98 72 60 55 59 66 76 87
34 24 19 25 24 24 28 27 23 22 21 19 21 26 27 32 34 33 42 33 25 28 30 8 16 23 18 12 8 12 80 98 99 98 98 98 95 91 78 83 87 83 92
25 18 21 24 24 26 26 25 26 26 31 38 45 49 48 46 36 33 71 55 35 37 65 43 10 15 24 18 9 7 9 92 99 98 98 98 98 98 97 99 98 97 99
17 17 22 24 25 28 28 30 37 48 53 59 64 65 61 59 56 51 50 52 47 45 63 98 85 13 11 22 14 7 8 10 84 98 99 98 98 98 98 98 98 99 100
14 17 21 26 26 28 34 50 60 63 69 75 77 83 85 87 86 79 68 63 61 39 38 61 89 74 28 10 20 14 8 7 9 61 97 98 98 97 98 98 97 98 98
15 19 28 28 29 40 61 75 77 81 89 92 88 85 84 84 86 86 95 94 81 67 37 31 52 97 62 82 19 19 13 8 6 26 61 97 98 98 98 98 98 99 98
25 32 28 33 50 65 81 83 90 99 99 95 92 93 92 88 88 93 91 88 99 97 65 34 32 39 90 97 99 33 19 15 7 18 41 98 96 98 97 98 98 98 98
34 31 37 56 70 77 86 88 94 95 94 92 96 96 96 96 97 97 97 97 97 100 91 43 30 38 41 79 78 63 23 16 12 7 11 57 88 96 98 98 98 98 98
34 42 58 75 83 92 91 95 96 99 94 91 93 95 96 96 97 98 97 100 100 99 94 57 64 38 38 32 22 26 50 26 11 9 6 34 93 96 97 97 99 98 97

GFSMA_700_rhum_003.txt.gz
RH
12 11 12 12 14 16 19 23 41 63 99 95 94 96 100 100 99 94 86 75 77 81 88 84 78 52 77 64 26 8 6 11 20 22 10 9 10 11 11 11 10 11 15
22 23 24 23 21 22 21 21 22 41 65 66 86 80 85 98 89 78 77 75 75 66 64 86 93 79 71 80 31 12 8 8 18 24 12 9 11 12 12 12 15 18 18
27 27 26 27 28 27 25 25 23 19 17 34 70 83 86 85 76 63 54 48 52 51 46 47 55 74 82 78 76 12 14 11 17 25 14 9 12 13 14 15 18 18 18
24 26 28 30 32 33 29 23 22 21 18 15 17 42 66 69 89 54 37 40 38 38 44 53 70 76 89 77 83 49 18 12 16 23 18 10 13 14 15 17 19 19 20
31 28 30 33 36 39 37 32 26 24 22 19 16 16 27 36 65 49 56 30 32 37 44 48 79 79 99 89 71 73 40 18 16 21 22 11 14 14 16 19 20 22 22
48 36 35 36 40 44 44 42 35 28 24 24 22 19 16 15 17 48 34 49 42 41 45 66 70 84 100 99 64 72 69 43 19 20 23 11 15 15 16 19 21 24 24
44 41 45 50 53 53 51 48 40 32 28 25 22 22 19 16 17 24 68 53 71 68 42 53 62 73 100 100 89 64 70 68 51 21 25 12 15 15 17 19 21 24 25
48 52 57 62 62 58 52 45 40 36 31 28 25 23 22 21 21 18 25 60 72 64 61 75 62 68 95 100 100 92 65 75 65 49 27 14 15 16 17 19 21 24 26
60 67 68 62 57 53 48 44 39 35 33 29 28 26 23 22 20 20 21 23 47 58 59 57 53 69 76 92 96 94 68 69 73 68 49 13 15 16 18 20 20 23 26
75 71 66 63 59 55 50 48 60 37 34 34 30 31 31 26 22 18 20 18 18 24 50 77 64 65 73 74 76 95 89 64 76 78 65 18 15 16 18 20 20 22 26
91 73 69 66 64 62 62 56 49 45 40 45 76 77 53 40 40 31 16 18 18 17 24 87 76 92 72 73 74 99 83 90 78 85 74 44 12 15 18 21 20 20 24
96 95 92 91 88 65 67 60 50 42 38 35 35 50 68 71 72 79 42 24 21 20 19 17 96 86 81 69 76 87 95 82 97 85 77 65 11 14 17 21 20 19 22
79 92 87 77 69 69 73 59 48 39 31 27 25 24 23 23 40 56 60 33 30 19 21 20 17 64 88 100 96 91 97 100 84 89 84 69 32 18 17 22 21 18 19
92 90 78 79 78 77 65 52 38 34 30 26 22 19 17 16 17 24 47 70 73 31 20 17 21 18 63 89 85 97 99 100 99 91 92 73 74 38 25 25 25 22 18
94 91 86 87 79 72 48 36 25 18 14 12 10 17 33 24 17 17 35 60 91 84 44 20 30 35 22 32 94 100 99 100 98 99 95 73 62 64 62 85 56 36 26
93 92 90 86 64 47 33 24 16 13 13 14 14 18 23 26 25 33 40 58 83 96 55 36 24 37 78 25 27 85 98 89 99 99 99 86 68 72 56 89 99 97 86
95 92 83 67 51 36 25 18 18 21 23 25 26 26 24 26 35 46 60 71 95 96 88 50 66 38 64 72 26 22 33 98 98 99 98 99 75 68 61 64 91 98 99
93 81 76 59 39 28 19 20 24 23 25 26 25 25 25 28 32 29 38 55 71 91 94 78 78 76 100 90 64 22 19 50 74 98 98 98 81 77 58 53 68 88 90
88 88 62 34 31 19 17 22 25 25 27 30 29 30 33 38 40 47 51 54 67 74 76 84 68 58 86 99 100 53 20 21 53 97 98 96 98 99 81 63 55 71 90
92 79 42 25 15 15 16 21 26 27 29 32 42 50 51 56 60 66 70 57 60 80 86 87 74 62 59 63 87 75 28 21 18 17 61 97 98 98 99 98 72 60 71
85 70 22 12 14 16 23 30 29 30 41 45 55 62 63 66 72 79 82 74 72 69 66 83 77 69 64 66 82 60 77 30 20 12 11 58 95 98 98 98 99 76 71
75 22 14 14 20 33 33 32 37 52 59 68 74 79 82 82 85 88 90 90 85 77 68 70 70 77 71 66 82 82 92 68 25 14 7 8 52 97 98 98 97 98 96
21 14 13 28 34 34 38 48 65 72 77 80 84 89 91 92 92 90 89 89 94 98 91 84 77 63 79 75 82 87 84 79 36 19 10 7 39 94 97 97 98 98 97
13 12 32 37 40 47 58 71 76 85 92 94 94 93 92 90 93 96 96 95 95 94 93 98 91 75 68 67 99 99 99 99 79 25 14 6 28 79 95 97 98 98 98
17 33 38 44 54 66 74 82 94 96 93 92 92 94 96 95 95 97 96 97 100 98 96 93 93 93 85 78 68 86 84 98 87 48 16 8 9 64 97 95 97 98 98
37 37 44 60 75 77 88 100 100 100 100 96 93 91 93 96 97 97 97 98 96 97 97 96 89 94 92 81 94 74 83 98 74 68 23 11 3 68 100 78 95 97 97

GFSMA_700_rhum_006.txt.gz
RH
13 13 14 16 17 14 13 14 17 19 15 25 86 94 63 96 99 98 95 88 85 85 79 79 79 76 85 81 66 53 53 15 8 14 20 21 12 8 10 10 9 8 7
24 25 26 26 25 25 24 24 24 25 21 16 18 51 81 87 94 88 100 95 92 89 82 78 75 75 68 91 78 58 46 39 10 8 16 23 17 8 10 10 10 10 10
24 24 24 25 26 28 29 30 32 31 27 22 18 19 79 90 86 94 71 96 98 90 77 78 75 64 67 71 82 64 59 49 22 7 12 21 22 9 10 11 12 11 11
36 37 35 29 26 28 32 34 37 38 34 30 26 20 16 48 80 87 92 96 95 78 57 58 57 52 58 77 78 62 64 68 36 10 7 15 24 14 9 11 12 13 14
62 60 57 52 45 35 34 36 42 44 42 39 34 27 22 17 26 59 66 74 72 70 52 48 47 53 53 70 70 71 75 64 73 16 10 12 22 20 9 12 13 14 17
65 63 58 54 50 45 43 44 47 50 49 47 42 35 28 24 20 20 17 38 59 64 50 47 44 50 61 80 78 75 86 88 70 65 14 12 18 23 11 13 14 15 18
65 59 51 46 46 50 54 56 57 55 52 46 42 38 34 28 24 22 20 18 32 76 79 76 68 53 56 76 70 78 88 92 97 96 37 16 17 22 14 13 15 16 18
55 50 46 51 58 60 62 63 57 51 46 43 40 37 34 30 29 24 22 20 28 74 86 80 85 73 41 59 70 88 100 100 96 98 86 47 20 20 20 12 15 17 20
61 58 60 74 77 74 69 64 58 54 51 47 43 44 36 32 28 31 28 25 24 26 63 83 85 78 70 82 66 85 100 100 99 86 92 90 56 23 23 14 15 16 19
81 75 83 89 97 90 86 86 80 76 69 57 51 41 40 37 30 26 28 31 30 26 29 38 87 86 83 85 68 64 98 100 100 98 98 96 86 63 28 20 14 16 18
73 72 86 95 97 99 91 85 72 63 63 61 56 47 37 32 37 39 23 21 22 24 25 23 38 53 83 100 93 76 95 88 100 99 98 98 97 96 75 31 14 16 17
59 84 90 94 81 73 86 74 71 71 69 66 60 47 35 29 26 24 26 21 21 19 20 20 23 20 25 87 98 98 95 90 100 96 98 98 87 91 91 82 22 16 16
85 93 90 94 94 96 90 83 82 80 71 66 48 34 30 28 27 24 24 21 19 15 14 14 15 18 20 27 63 100 91 99 100 95 100 100 93 88 92 92 82 19 16
96 94 95 96 95 95 96 96 85 72 64 43 34 26 20 16 14 13 13 14 13 12 12 11 11 12 14 15 22 38 100 97 97 93 100 99 100 98 90 89 92 59 17
96 95 96 94 96 95 94 90 77 57 45 35 26 18 12 10 8 8 7 19 30 16 10 12 14 12 14 17 15 22 39 63 94 99 98 99 96 99 99 92 93 86 45
96 96 96 96 96 95 92 77 61 46 32 23 15 11 9 9 9 9 13 18 21 51 46 17 17 28 26 22 30 48 39 24 31 41 72 99 99 100 100 99 97 93 86
96 96 96 96 96 92 75 58 31 23 20 14 12 13 13 14 14 14 15 18 40 45 62 17 46 56 50 45 42 47 65 57 26 42 75 92 90 99 99 99 99 94 90
96 96 95 94 88 71 66 40 14 11 11 14 18 22 22 22 22 20 18 21 26 24 37 41 54 62 76 91 64 55 54 57 60 31 54 100 87 100 99 99 99 98 91
95 95 94 91 76 69 44 11 10 14 16 18 23 28 26 26 26 24 24 24 25 29 38 42 37 53 57 70 76 50 53 70 69 53 34 38 91 98 100 99 97 98 98
94 94 94 88 81 40 12 12 18 26 33 33 31 30 27 27 32 43 53 49 44 40 37 52 43 52 57 54 66 52 42 47 49 79 38 34 37 61 94 95 98 98 99
95 92 81 53 18 12 12 28 38 37 35 36 39 41 45 59 73 81 84 74 72 61 51 48 57 55 62 66 60 50 59 54 58 39 53 55 32 32 42 75 97 98 98
65 35 20 20 11 13 30 39 42 44 53 50 54 66 76 84 88 90 95 94 89 88 82 74 54 45 54 72 74 75 70 70 69 78 73 80 61 23 18 72 97 98 98
36 22 18 14 24 35 38 44 55 66 70 74 80 90 94 95 97 96 96 97 98 98 96 96 88 73 53 55 74 85 93 87 84 86 90 84 65 30 14 11 53 95 98
23 18 19 36 37 37 47 66 80 82 87 93 94 95 94 93 96 98 97 94 94 96 100 98 93 95 90 73 75 88 100 98 80 70 82 80 65 22 15 10 12 62 82
20 29 37 37 39 49 76 80 88 96 96 96 97 97 96 94 96 98 97 97 97 97 100 94 95 97 94 97 91 95 90 100 88 69 97 91 72 23 14 9 10 45 95
36 37 36 38 49 79 81 88 99 100 98 96 96 96 97 100 97 98 98 99 100 98 97 98 96 92 91 94 93 96 92 92 100 78 78 97 73 25 14 33 84 75 93

GFSMA_700_rhum_009.txt.gz
RH
20 21 22 23 23 24 25 25 24 24 27 27 23 17 24 85 96 69 85 87 84 78 85 84 86 76 79 78 79 78 78 61 55 41 11 16 20 20 15 8 8 8 7
24 24 24 25 25 26 27 29 31 31 29 29 31 24 22 38 64 70 99 99 98 86 92 92 92 82 80 81 80 77 81 79 64 72 30 10 17 20 19 10 8 9 8
37 38 38 38 37 34 30 27 27 31 33 35 33 33 29 22 81 86 81 88 99 99 98 99 88 84 84 85 80 79 77 87 76 61 68 26 10 19 21 16 8 10 10
55 59 62 62 62 59 55 48 38 35 36 39 42 39 37 34 22 48 93 93 83 96 99 100 100 100 92 86 74 77 77 85 92 68 70 66 8 13 20 20 10 10 11
52 54 56 62 64 63 60 56 50 45 43 44 46 46 44 40 38 25 21 58 86 90 94 97 100 99 97 72 72 66 76 82 89 83 71 79 27 8 16 22 17 9 11
52 56 61 64 62 61 58 52 48 47 48 47 47 48 48 46 43 38 27 20 24 76 70 81 87 79 83 71 79 73 87 73 86 90 95 86 69 10 10 19 22 10 11
61 63 63 60 55 52 50 48 50 51 53 60 59 56 53 48 42 39 36 27 23 33 30 73 69 70 61 58 66 76 80 80 92 84 89 92 98 36 9 13 23 15 10
66 65 61 60 58 54 56 59 65 71 69 66 63 60 52 46 42 39 37 34 28 25 22 30 75 80 79 74 74 77 90 99 100 89 96 100 90 84 26 12 18 22 11
72 74 76 75 72 68 64 70 78 78 74 67 62 59 59 56 49 40 38 40 37 30 26 24 39 96 100 96 94 87 57 76 84 87 93 98 99 100 82 29 16 22 15
70 73 91 98 93 84 81 84 86 84 76 70 63 63 58 56 54 48 40 35 37 42 40 38 34 82 100 100 100 99 77 82 78 81 100 97 98 100 100 86 44 22 21
74 81 93 98 100 99 98 97 92 88 79 75 74 74 64 60 55 53 45 39 31 28 36 44 48 88 99 99 100 100 100 89 81 74 96 96 90 98 100 100 95 66 29
91 95 97 99 99 98 97 96 96 95 93 86 90 86 78 65 59 50 42 34 29 24 20 22 31 33 36 50 90 100 95 99 96 84 91 100 100 98 98 99 99 91 89
95 97 96 96 96 97 94 97 93 95 96 93 95 79 70 59 42 33 28 25 22 20 18 17 16 17 22 29 29 42 79 78 100 99 100 99 97 99 99 99 99 99 94
98 97 97 96 95 96 94 96 97 95 96 93 80 68 55 41 35 29 22 18 18 16 15 14 13 13 13 13 16 22 25 42 92 97 99 98 97 99 94 100 94 98 99
97 97 95 97 96 96 97 96 95 93 93 80 64 50 38 32 25 18 13 11 11 12 14 12 12 13 14 16 13 12 14 20 28 34 72 98 96 89 98 96 99 99 98
97 96 97 96 97 97 96 95 93 91 76 54 39 22 15 15 13 10 10 11 12 12 10 13 13 14 14 15 15 14 13 12 13 19 36 70 91 91 80 91 99 99 99
98 96 95 95 95 95 94 94 92 67 49 19 6 5 6 7 8 12 15 16 18 19 14 10 10 12 15 17 26 31 18 20 20 14 17 33 78 95 90 83 96 100 99
94 95 96 97 94 93 92 90 72 50 13 9 9 12 13 13 14 15 18 19 20 22 21 12 15 11 12 19 22 26 36 20 37 36 25 26 23 27 65 78 86 96 99
88 100 95 90 84 69 49 28 16 13 11 12 17 23 24 25 24 23 22 21 22 22 19 15 13 13 16 20 22 27 52 62 46 59 49 28 22 43 27 27 39 69 100
97 89 85 64 37 17 16 16 12 13 17 24 28 32 33 33 32 31 30 28 29 34 33 26 16 15 16 20 31 30 33 50 57 50 47 46 33 36 46 30 26 37 75
95 94 75 57 19 17 15 20 27 32 35 37 39 44 48 54 62 69 70 61 69 70 70 63 38 32 22 16 28 47 43 50 56 50 37 33 32 23 32 42 34 47 81
94 79 40 19 16 19 31 38 39 37 40 46 52 64 74 76 76 81 86 92 92 88 84 81 61 51 43 38 34 40 65 68 48 44 44 30 35 37 27 52 46 29 32
52 20 17 18 24 34 36 37 39 48 63 73 75 78 80 86 91 92 92 95 98 100 98 90 77 73 70 60 57 41 49 94 61 56 54 44 39 45 65 37 34 36 29
19 18 20 28 34 35 35 40 63 78 76 80 84 86 86 86 88 94 98 96 96 95 99 96 85 81 86 91 85 75 57 53 46 46 56 53 45 44 64 75 63 47 34
20 22 28 35 36 35 39 64 78 79 82 85 88 93 96 93 91 93 97 97 90 88 88 90 93 93 90 88 90 88 78 74 46 46 65 73 54 55 77 81 71 49 34
22 30 36 37 35 36 61 79 85 91 94 96 90 90 91 94 96 96 93 94 92 88 88 89 91 91 92 93 97 92 87 81 80 60 61 79 74 74 85 87 74 36 22